When you browse on this site, cookies collect data to enhance your experience and personalize the content and advertising you see.
Visit our Privacy Policy to learn more. By continuing to use the site, you agree to this use of cookies and data.

Meteo pe oră la Alhos Vedros

Astăzi, 7 August, Vineri

Timp Temperatura Precipitaţii Vânt Presiune Umiditate
00:00 +20°C° 0 mm 2 m/s 760 mmHg 80%
01:00 +20°C° 0 mm 2 m/s 760 mmHg 81%
02:00 +19°C° 0 mm 2 m/s 760 mmHg 83%
03:00 +19°C° 0 mm 2 m/s 760 mmHg 84%
04:00 +19°C° 0 mm 2 m/s 760 mmHg 85%
05:00 +19°C° 0 mm 2 m/s 761 mmHg 90%
06:00 +21°C° 0 mm 2 m/s 761 mmHg 80%
07:00 +24°C° 0 mm 3 m/s 762 mmHg 69%
08:00 +27°C° 0 mm 3 m/s 762 mmHg 59%
09:00 +29°C° 0 mm 3 m/s 762 mmHg 52%
10:00 +32°C° 0 mm 2 m/s 762 mmHg 46%
11:00 +35°C° 0 mm 2 m/s 762 mmHg 40%
12:00 +35°C° 0 mm 3 m/s 762 mmHg 39%
13:00 +35°C° 0 mm 4 m/s 761 mmHg 38%
14:00 +35°C° 0 mm 5 m/s 761 mmHg 37%
15:00 +34°C° 0 mm 6 m/s 761 mmHg 40%
16:00 +32°C° 0 mm 7 m/s 761 mmHg 44%
17:00 +29°C° 0 mm 8 m/s 761 mmHg 47%
18:00 +27°C° 0 mm 7 m/s 762 mmHg 58%
19:00 +24°C° 0 mm 6 m/s 762 mmHg 68%
20:00 +22°C° 0 mm 5 m/s 762 mmHg 79%
21:00 +21°C° 0 mm 4 m/s 763 mmHg 83%
22:00 +20°C° 0 mm 3 m/s 763 mmHg 86%
23:00 +20°C° 0 mm 3 m/s 763 mmHg 90%

Mâine, 8 August, Sâmbătă

Timp Temperatura Precipitaţii Vânt Presiune Umiditate
00:00 +19°C° 0 mm 3 m/s 763 mmHg 91%
01:00 +19°C° 0 mm 3 m/s 763 mmHg 92%
02:00 +19°C° 0 mm 3 m/s 762 mmHg 92%
03:00 +19°C° 0 mm 3 m/s 763 mmHg 93%
04:00 +19°C° 0 mm 2 m/s 763 mmHg 93%
05:00 +19°C° 0 mm 2 m/s 763 mmHg 93%
06:00 +21°C° 0 mm 2 m/s 763 mmHg 83%
07:00 +24°C° 0 mm 2 m/s 763 mmHg 73%
08:00 +26°C° 0 mm 2 m/s 763 mmHg 62%
09:00 +28°C° 0 mm 3 m/s 763 mmHg 54%
10:00 +31°C° 0 mm 3 m/s 763 mmHg 46%
11:00 +34°C° 0 mm 4 m/s 763 mmHg 37%
12:00 +34°C° 0 mm 4 m/s 763 mmHg 38%
13:00 +34°C° 0 mm 5 m/s 762 mmHg 38%
14:00 +34°C° 0 mm 6 m/s 762 mmHg 38%
15:00 +32°C° 0 mm 6 m/s 762 mmHg 42%
16:00 +30°C° 0 mm 6 m/s 762 mmHg 47%
17:00 +28°C° 0 mm 7 m/s 762 mmHg 51%
18:00 +26°C° 0 mm 6 m/s 762 mmHg 62%
19:00 +23°C° 0 mm 5 m/s 762 mmHg 72%
20:00 +20°C° 0 mm 5 m/s 762 mmHg 83%
21:00 +20°C° 0 mm 4 m/s 762 mmHg 86%
22:00 +19°C° 0 mm 3 m/s 762 mmHg 89%
23:00 +19°C° 0 mm 3 m/s 762 mmHg 92%

Poimâine, 9 August, Duminică

Timp Temperatura Precipitaţii Vânt Presiune Umiditate
00:00 +19°C° 0 mm 3 m/s 762 mmHg 92%
01:00 +19°C° 0 mm 2 m/s 762 mmHg 92%
02:00 +18°C° 0 mm 2 m/s 761 mmHg 92%
03:00 +18°C° 0 mm 3 m/s 761 mmHg 92%
04:00 +18°C° 0 mm 3 m/s 761 mmHg 92%
05:00 +18°C° 0 mm 3 m/s 761 mmHg 92%
06:00 +20°C° 0 mm 3 m/s 761 mmHg 82%
07:00 +22°C° 0 mm 4 m/s 761 mmHg 73%
08:00 +25°C° 0 mm 4 m/s 761 mmHg 63%
09:00 +27°C° 0 mm 4 m/s 761 mmHg 56%
10:00 +29°C° 0 mm 5 m/s 761 mmHg 48%
11:00 +32°C° 0 mm 5 m/s 761 mmHg 41%
12:00 +32°C° 0 mm 6 m/s 761 mmHg 41%
13:00 +32°C° 0 mm 7 m/s 761 mmHg 41%
14:00 +32°C° 0 mm 7 m/s 760 mmHg 42%
15:00 +29°C° 0 mm 7 m/s 760 mmHg 46%
16:00 +28°C° 0 mm 7 m/s 760 mmHg 51%
17:00 +26°C° 0 mm 7 m/s 760 mmHg 55%
18:00 +23°C° 0 mm 7 m/s 760 mmHg 65%
19:00 +22°C° 0 mm 6 m/s 761 mmHg 75%
20:00 +20°C° 0 mm 5 m/s 761 mmHg 85%
21:00 +19°C° 0 mm 5 m/s 761 mmHg 88%
22:00 +19°C° 0 mm 5 m/s 761 mmHg 90%
23:00 +19°C° 0 mm 4 m/s 761 mmHg 93%

10 August, Luni

Timp Temperatura Precipitaţii Vânt Presiune Umiditate
00:00 +18°C° 0 mm 4 m/s 760 mmHg 93%
01:00 +18°C° 0 mm 4 m/s 760 mmHg 93%
02:00 +18°C° 0 mm 4 m/s 760 mmHg 93%
03:00 +18°C° 0 mm 4 m/s 760 mmHg 93%
04:00 +18°C° 0 mm 4 m/s 760 mmHg 92%
05:00 +18°C° 0 mm 4 m/s 760 mmHg 92%
06:00 +20°C° 0 mm 4 m/s 760 mmHg 84%
07:00 +22°C° 0 mm 4 m/s 760 mmHg 76%
08:00 +23°C° 0 mm 5 m/s 760 mmHg 68%
09:00 +26°C° 0 mm 5 m/s 760 mmHg 60%
10:00 +28°C° 0 mm 5 m/s 760 mmHg 53%
11:00 +30°C° 0 mm 6 m/s 760 mmHg 46%
12:00 +30°C° 0 mm 6 m/s 759 mmHg 46%
13:00 +30°C° 0 mm 7 m/s 759 mmHg 46%
14:00 +30°C° 0 mm 7 m/s 758 mmHg 46%
15:00 +29°C° 0 mm 7 m/s 759 mmHg 51%
16:00 +27°C° 0 mm 7 m/s 759 mmHg 56%
17:00 +26°C° 0 mm 7 m/s 759 mmHg 61%
18:00 +23°C° 0 mm 6 m/s 759 mmHg 70%
19:00 +21°C° 0 mm 6 m/s 759 mmHg 80%
20:00 +19°C° 0 mm 5 m/s 759 mmHg 89%
21:00 +19°C° 0 mm 5 m/s 760 mmHg 90%
22:00 +18°C° 0 mm 4 m/s 760 mmHg 91%
23:00 +18°C° 0 mm 4 m/s 760 mmHg 92%

11 August, Marţi

Timp Temperatura Precipitaţii Vânt Presiune Umiditate
00:00 +18°C° 0 mm 4 m/s 759 mmHg 93%
01:00 +18°C° 0 mm 4 m/s 759 mmHg 93%
02:00 +18°C° 0 mm 4 m/s 759 mmHg 93%
03:00 +18°C° 0 mm 4 m/s 759 mmHg 93%
04:00 +18°C° 0 mm 4 m/s 759 mmHg 93%
05:00 +18°C° 0 mm 3 m/s 759 mmHg 93%
06:00 +20°C° 0 mm 4 m/s 759 mmHg 85%
07:00 +21°C° 0 mm 4 m/s 760 mmHg 77%
08:00 +23°C° 0 mm 4 m/s 760 mmHg 69%
09:00 +26°C° 0 mm 5 m/s 760 mmHg 62%
10:00 +28°C° 0 mm 5 m/s 760 mmHg 55%
11:00 +29°C° 0 mm 6 m/s 760 mmHg 48%
12:00 +29°C° 0 mm 6 m/s 760 mmHg 48%
13:00 +29°C° 0 mm 7 m/s 759 mmHg 48%
14:00 +30°C° 0 mm 7 m/s 759 mmHg 48%
15:00 +28°C° 0 mm 7 m/s 759 mmHg 53%
16:00 +27°C° 0 mm 8 m/s 760 mmHg 58%
17:00 +26°C° 0 mm 8 m/s 760 mmHg 63%
18:00 +23°C° 0 mm 7 m/s 760 mmHg 71%
19:00 +22°C° 0 mm 6 m/s 760 mmHg 78%
20:00 +20°C° 0 mm 6 m/s 761 mmHg 86%
21:00 +20°C° 0 mm 5 m/s 761 mmHg 87%
22:00 +19°C° 0 mm 5 m/s 761 mmHg 88%
23:00 +19°C° 0 mm 5 m/s 761 mmHg 88%

12 August, Miercuri

Timp Temperatura Precipitaţii Vânt Presiune Umiditate
00:00 +19°C° 0 mm 5 m/s 761 mmHg 88%
01:00 +17°C° 0 mm 5 m/s 760 mmHg 87%
02:00 +17°C° 0 mm 5 m/s 760 mmHg 87%
03:00 +17°C° 0 mm 5 m/s 760 mmHg 88%
04:00 +17°C° 0 mm 5 m/s 760 mmHg 88%
05:00 +17°C° 0 mm 5 m/s 761 mmHg 89%
06:00 +20°C° 0 mm 5 m/s 761 mmHg 79%
07:00 +22°C° 0 mm 6 m/s 761 mmHg 69%
08:00 +24°C° 0 mm 6 m/s 761 mmHg 59%
09:00 +26°C° 0 mm 7 m/s 761 mmHg 52%
10:00 +28°C° 0 mm 7 m/s 761 mmHg 45%
11:00 +30°C° 0 mm 7 m/s 761 mmHg 39%
12:00 +29°C° 0 mm 7 m/s 761 mmHg 39%
13:00 +29°C° 0 mm 8 m/s 761 mmHg 39%
14:00 +29°C° 0 mm 8 m/s 761 mmHg 39%
15:00 +28°C° 0 mm 8 m/s 761 mmHg 43%
16:00 +27°C° 0 mm 8 m/s 761 mmHg 47%
17:00 +24°C° 0 mm 7 m/s 761 mmHg 51%
18:00 +23°C° 0 mm 7 m/s 761 mmHg 61%
19:00 +21°C° 0 mm 6 m/s 762 mmHg 70%
20:00 +19°C° 0 mm 5 m/s 762 mmHg 80%
21:00 +17°C° 0 mm 5 m/s 762 mmHg 84%
22:00 +17°C° 0 mm 5 m/s 762 mmHg 88%
23:00 +18°C° 0 mm 4 m/s 762 mmHg 92%
Arată mai mult